This demonstration page uses our WeatherBlox Daily Observations layout. Learn more.

Left ArrowRight Arrow

Hourly Observations for November 5, 2018

Temp ( °F °C ) Dew Point ( °F °C ) Humidity (%) Winds ( mph kmh ) Pressure ( in mb ) Visibility ( mi km ) Precip ( " mm )
12:57 am 00:57 Cloudy with Light Rain 43 6.1 37 2.8 80 80 S 12 19 29.65 1004 10 16 0.00 0.03
1:57 am 01:57 Cloudy with Light Rain 42 5.6 38 3.3 85 85 S 14 22 29.63 1003 10 16 0.00 0.03
2:57 am 02:57 Cloudy with Light Rain 42 5.6 40 4.4 92 92 S 15 24 29.62 1003 10 16 0.04 1.02
3:57 am 03:57 Cloudy with Light Rain 43 6.1 40 4.4 89 89 S 16 26 29.59 1002 10 16 0.02 0.51
4:57 am 04:57 Cloudy with Light Rain 43 6.1 41 5 93 93 SSW 13 20 29.59 1002 10 16 0.00 0.03
5:57 am 05:57 Cloudy with Light Rain 43 6.1 41 5 93 93 SSW 12 19 29.59 1002 10 16 0.01 0.25
6:57 am 06:57 Cloudy 43 6.1 41 5 93 93 SSW 7 11 29.58 1002 10 16 0.00 0.03
7:57 am 07:57 Mostly Sunny 43 6.1 41 5 93 93 WSW 6 9 29.58 1002 10 16 0.00 0.00
8:57 am 08:57 Sunny 45 7.2 41 5 86 86 NW 14 22 29.59 1002 10 16 0.00 0.00
9:57 am 09:57 Partly Cloudy 49 9.4 42 5.6 77 77 NW 22 35 29.59 1002 10 16 0.00 0.00
10:57 am 10:57 Mostly Cloudy 53 11.7 42 5.6 66 66 NNW 21 33 29.60 1002 10 16 0.00 0.00
11:16 am 11:16 Mostly Cloudy 54 12 41 5 63 63 NW 22 35 29.59 1002 10 16 0.00 0.00
11:24 am 11:24 Cloudy 54 12 41 5 63 63 NNW 15 24 29.59 1002 10 16 0.00 0.00
11:57 am 11:57 Mostly Cloudy 54 12.2 40 4.4 59 59 NW 18 30 29.60 1003 10 16 0.00 0.00
12:57 pm 12:57 Cloudy 53 11.7 39 3.9 59 59 NW 17 28 29.61 1003 10 16 0.00 0.00
1:57 pm 13:57 Cloudy 55 12.8 38 3.3 53 53 NW 22 35 29.60 1003 10 16 0.00 0.00
2:57 pm 14:57 Mostly Sunny 54 12.2 40 4.4 59 59 NW 22 35 29.63 1003 10 16 0.01 0.25
3:57 pm 15:57 Mostly Cloudy 52 11.1 38 3.3 59 59 NW 18 30 29.67 1005 10 16 0.00 0.03
4:57 pm 16:57 Sunny 51 10.6 35 1.7 54 54 NW 20 31 29.69 1005 10 16 0.00 0.00
5:57 pm 17:57 Clear 45 7.2 35 1.7 68 68 NW 7 11 29.73 1007 10 16 0.00 0.00
6:57 pm 18:57 Clear 45 7.2 34 1.1 66 66 NW 8 13 29.77 1008 10 16 0.00 0.00
7:57 pm 19:57 Clear 43 6.1 32 0 65 65 NNW 7 11 29.80 1009 10 16 0.00 0.00
8:57 pm 20:57 Clear 38 3.3 31 -0.6 76 76 NW 6 9 29.83 1010 10 16 0.00 0.00
9:57 pm 21:57 Clear 38 3.3 31 -0.6 76 76 W 7 11 29.84 1011 10 16 0.00 0.00
10:57 pm 22:57 Clear 35 1.7 30 -1.1 82 82 NW 7 11 29.84 1011 10 16 0.00 0.00
11:57 pm 23:57 Clear 32 0 28 -2.2 85 85 W 5 7 29.86 1011 10 16 0.00 0.00

Powered by AerisWeather